Regional Weather Roundup
Issued by NWS

Home | Current Version | Previous Version | Text Only | Print | Product List | Glossary On
Versions: 1 2 3 4 5 6 7 8 9 10 11 12 13 14 15 16 17 18 19 20 21 22 23 24 25 26 27 28 29 30 31 32 33 34 35 36 37 38 39 40 41 42 43 44 45 46 47 48 49 50
000
ASUS44 KOUN 240310
RWROK

WEATHER ROUNDUP FOR OKLAHOMA
NATIONAL WEATHER SERVICE NORMAN OK
1000 PM CDT SAT JUL 23 2016

NOTE: "FAIR" INDICATES FEW OR NO CLOUDS BELOW 12,000 FEET WITH NO
      SIGNIFICANT WEATHER AND/OR OBSTRUCTIONS TO VISIBILITY.

OKZ001>007-009>012-014-015-017-240400-
NORTHWEST OKLAHOMA AND THE PANHANDLE

CITY           SKY/WX    TMP DP  RH WIND       PRES   REMARKS
GAGE           CLEAR     86  59  39 S10       29.90R
GUYMON         CLOUDY    91  50  24 S12       29.88S
ENID/WOODRING  CLEAR     88  64  45 S9        29.87R
$$

OKZ016-021>023-033>039-044-045-240400-
SOUTHWEST OKLAHOMA

CITY           SKY/WX    TMP DP  RH WIND       PRES   REMARKS
LAWTON/REGL    CLEAR     89  68  49 SE12      29.89R HX  93
LAWTON/FT SILL CLEAR     87  71  59 S10       29.89R HX  93
FREDERICK      CLEAR     89  69  51 SE14      29.86R HX  93
CLINTON        CLEAR     88  63  43 S12       29.92R
HOBART         CLEAR     87  65  47 S13       29.90R
ALTUS AFB      CLEAR     84  65  51 SE9       29.88R
$$

OKZ018>020-024>031-240400-
CENTRAL OKLAHOMA

CITY           SKY/WX    TMP DP  RH WIND       PRES   REMARKS
OKLAHOMA CITY  CLEAR     85  67  54 S7        29.90R
OKC/WILEY POST CLEAR     90  65  43 S13       29.90R HX  92
STILLWATER     CLEAR     89  68  49 S10       29.89R HX  93
GUTHRIE        CLEAR     88  69  53 SE8       29.89R HX  92
$$

OKZ008-013-054>072-240400-
NORTHEAST OKLAHOMA

CITY           SKY/WX    TMP DP  RH WIND       PRES   REMARKS
TULSA          PTCLDY    91  71  51 S6        29.89R HX  97
TULSA/JONES    CLEAR     91  74  57 S3        29.89R HX 100
PONCA CITY     PTCLDY    90  68  48 SE24      29.87R HX  94
BARTLESVILLE   CLEAR     80  71  74 S3        29.90R
MUSKOGEE       CLEAR     86  75  69 SE6       29.91S HX  95
$$

OKZ032-040>043-046>053-073>077-240400-
SOUTH CENTRAL/SOUTHEAST OKLAHOMA

CITY           SKY/WX    TMP DP  RH WIND       PRES   REMARKS
ARDMORE/DWNTWN CLEAR     86  70  58 CALM      29.90S HX  90
MCALESTER      MOCLDY    86  70  58 S3        29.94R HX  90
$$




USA.gov is the U.S. government's official web portal to all federal, state and local government web resources and services.